Detroit Metro, MI

6:44 PM EDT on August 22, 2017 (GMT -0400)
Detroit Metro Wayne County

Weather History for KDTW - March, 2013

Change the Weather History Date:

Monday, March 4, 2013

  Actual Average Record
Temperature  
Mean Temperature 27 °F 33 °F  
Max Temperature 37 °F 41 °F 69 °F (1983)
Min Temperature 16 °F 25 °F 0 °F (2014)
Degree Days  
Heating Degree Days 38 32  
Month to date heating degree days 150 131  
Since 1 July heating degree days 4435 4684  
Cooling Degree Days 0 0  
Month to date cooling degree days 0 0  
Year to date cooling degree days 0 0  
Moisture  
Dew Point 14 °F    
Average Humidity 58    
Maximum Humidity 80    
Minimum Humidity 35    
Precipitation  
Precipitation 0.00 in 0.07 in 1.18 in (1895)
Month to date precipitation 0.01 0.29  
Year to date precipitation 6.29 4.27  
Snow  
Snow 0.00 in 0.30 in 11.80 in (1895)
Month to date snowfall 0.2 1.2  
Since 1 July snowfall 44.7 35.1  
Snow Depth 2.00 in    
Sea Level Pressure  
Sea Level Pressure 30.13 in    
Wind  
Wind Speed 4 mph (West)    
Max Wind Speed 9 mph    
Max Gust Speed 15 mph    
Visibility 10 miles    
Events      
T = Trace of Precipitation, MM = Missing Value Source: NWS Daily Summary

Daily Weather History Graph

Daily Weather History Graph

Search for Another Location

Airport or City:

Trip Planner

Search our weather history database for the weather conditions in past years. The results will help you decide how hot, cold, wet, or windy it might be!

Date:

Astronomy

Mar. 04, 2013 Rise Set
Actual Time 7:03 AM EST 6:27 PM EST
Civil Twilight 6:35 AM EST 6:55 PM EST
Nautical Twilight 6:02 AM EST 7:27 PM EST
Astronomical Twilight 5:30 AM EST 8:00 PM EST
Moon 1:16 AM EST (3/4) 11:03 AM EST (3/4)
Length of Visible Light 12h 20m
Length of Day
11h 23m
Waning Gibbous, 52% of the Moon is Illuminated
Mar 4
Waning Gibbous
Mar 4
Last Quarter
Mar 11
New
Mar 19
First Quarter
Mar 27
Full

Hourly Weather History & Observations

Time (EST) Temp. Windchill Dew Point Humidity Pressure Visibility Wind Dir Wind Speed Gust Speed Precip Events Conditions
12:53 AM 19.9 °F 13.4 °F 12.9 °F 74% 30.09 in 10.0 mi WSW 4.6 mph - N/A   Partly Cloudy
1:53 AM 21.0 °F 13.4 °F 12.9 °F 71% 30.11 in 10.0 mi West 5.8 mph - N/A   Partly Cloudy
2:53 AM 19.9 °F 13.4 °F 12.0 °F 71% 30.10 in 10.0 mi WNW 4.6 mph - N/A   Partly Cloudy
3:53 AM 19.0 °F - 10.9 °F 71% 30.10 in 10.0 mi Calm Calm - N/A   Clear
4:53 AM 18.0 °F 11.1 °F 10.9 °F 74% 30.12 in 10.0 mi WNW 4.6 mph - N/A   Clear
5:53 AM 18.0 °F 8.7 °F 12.0 °F 78% 30.15 in 10.0 mi West 6.9 mph - N/A   Clear
6:53 AM 17.1 °F 8.7 °F 10.9 °F 77% 30.16 in 10.0 mi WNW 5.8 mph - N/A   Clear
7:53 AM 19.0 °F 11.1 °F 12.0 °F 74% 30.17 in 10.0 mi WNW 5.8 mph - N/A   Clear
8:53 AM 21.9 °F 15.7 °F 14.0 °F 72% 30.17 in 10.0 mi NW 4.6 mph - N/A   Clear
9:53 AM 25.0 °F 20.7 °F 15.1 °F 66% 30.17 in 10.0 mi Variable 3.5 mph - N/A   Partly Cloudy
10:53 AM 28.0 °F 20.8 °F 15.1 °F 58% 30.17 in 10.0 mi WSW 6.9 mph - N/A   Partly Cloudy
11:53 AM 28.9 °F 23.9 °F 16.0 °F 58% 30.16 in 10.0 mi West 4.6 mph - N/A   Partly Cloudy
12:53 PM 30.9 °F - 16.0 °F 54% 30.14 in 10.0 mi Calm Calm - N/A   Scattered Clouds
1:53 PM 33.1 °F 26.9 °F 14.0 °F 46% 30.13 in 10.0 mi West 6.9 mph - N/A   Scattered Clouds
2:53 PM 35.1 °F 32.2 °F 15.1 °F 44% 30.11 in 10.0 mi SW 3.5 mph - N/A   Mostly Cloudy
3:53 PM 36.0 °F 33.3 °F 12.9 °F 39% 30.11 in 10.0 mi Variable 3.5 mph - N/A   Mostly Cloudy
4:53 PM 37.0 °F 32.4 °F 12.9 °F 37% 30.11 in 10.0 mi Variable 5.8 mph - N/A   Scattered Clouds
5:53 PM 34.0 °F 29.8 °F 14.0 °F 44% 30.11 in 10.0 mi WSW 4.6 mph - N/A   Scattered Clouds
6:53 PM 32.0 °F 28.7 °F 15.1 °F 50% 30.11 in 10.0 mi WSW 3.5 mph - N/A   Scattered Clouds
7:53 PM 30.0 °F 25.2 °F 16.0 °F 56% 30.11 in 10.0 mi West 4.6 mph - N/A   Scattered Clouds
8:53 PM 28.9 °F - 16.0 °F 58% 30.12 in 10.0 mi Calm Calm - N/A   Scattered Clouds
9:53 PM 28.9 °F 25.2 °F 19.0 °F 67% 30.13 in 10.0 mi ENE 3.5 mph - N/A   Mostly Cloudy
10:53 PM 28.0 °F 24.2 °F 18.0 °F 66% 30.13 in 10.0 mi NE 3.5 mph - N/A   Mostly Cloudy
11:53 PM 27.0 °F 21.6 °F 18.0 °F 69% 30.14 in 10.0 mi NE 4.6 mph - N/A   Scattered Clouds